[[{"header":{"parameterUnit":"m.s-1","parameterCategory":1,"la1":30.2991,"la2":30.254,"lo1":-89.0895,"lo2":-89.0444,"dy":0.0017,"dx":0.0017,"nx":28,"ny":28,"refTime":"2025-12-24T03:00:00:Z","depth":0,"parameterNumber":2,"parameterNumberName":"U-component_of_WINDS"},"data":[0,0,0,0,0,0,0,0,0,0,0,0,0,0,0,0,0,0,0,0,0,0,0,0,0,0,0,0,0,0,0,0,0,0,0,0,0,0,0,0,0,0,0,0,0,0,0,0,0,0,0,0,0,0,0,0,0,0,-0.5619,-0.5619,0,-0.5551,-0.555,-0.5549,-0.549,-0.5489,-0.5488,-0.5488,-0.5416,-0.5415,-0.5414,0,0,0,0,0,0,0,0,0,0,0,0,0,-0.5697,-0.5696,-0.5619,-0.5619,-0.5618,-0.5551,-0.555,-0.5549,-0.549,-0.5489,-0.5488,-0.5487,-0.5417,-0.5415,-0.5413,0,0,0,0,0,0,0,0,0,0,0,0,0,-0.565,-0.5696,-0.562,-0.558,-0.5576,-0.5551,-0.555,-0.5549,-0.549,-0.5489,-0.5488,-0.5487,-0.5417,-0.5415,-0.5413,-0.5422,0,0,-0.5407,-0.5407,0,0,0,0,0,0,0,0,-0.5653,-0.5647,-0.5587,-0.5583,-0.5578,-0.5528,-0.5551,-0.5506,-0.549,-0.5523,-0.5488,-0.5486,-0.5454,-0.5449,-0.5438,-0.5418,-0.5415,-0.5407,-0.5406,-0.5405,-0.5405,0,0,0,0,0,0,0,-0.5656,-0.565,-0.5592,-0.5586,-0.5581,-0.5565,-0.5557,-0.5542,-0.5495,-0.552,-0.5515,-0.5508,-0.5451,-0.544,-0.5436,-0.5414,-0.5407,-0.5406,-0.5404,-0.5404,-0.5397,-0.5398,0,0,0,0,0,0,-0.5666,-0.5653,-0.5594,-0.559,-0.5614,-0.5565,-0.5556,-0.5545,-0.5495,-0.5486,-0.5509,-0.5505,-0.5444,-0.5438,-0.5433,-0.544,-0.5405,-0.5403,-0.5402,-0.5396,-0.5397,-0.5398,0,0,0,0,0,0,-0.5667,-0.5661,-0.5597,-0.562,-0.5611,-0.5564,-0.5553,-0.5544,-0.5533,-0.5487,-0.5478,-0.5506,-0.5443,-0.5436,-0.5425,-0.5436,-0.5403,-0.5401,-0.5395,-0.5396,-0.5398,-0.5452,0,0,0,0,0,0,-0.567,-0.5662,-0.5665,-0.5621,-0.561,-0.5591,-0.5553,-0.5544,-0.553,-0.5525,-0.5482,-0.5474,-0.5442,-0.5428,-0.5423,-0.5433,-0.5399,-0.5393,-0.5395,-0.5397,-0.5449,-0.5456,-0.5461,0,0,0,0,0,-0.5673,-0.5683,-0.5666,-0.5659,-0.5613,-0.5591,-0.5585,-0.5548,-0.5531,-0.5534,-0.5504,-0.5475,-0.5436,-0.5428,-0.5421,-0.5431,-0.5393,-0.5395,-0.5397,-0.5447,-0.5454,-0.5461,0,0,0,0,0,0,-0.573,-0.5677,-0.5657,-0.5653,-0.5627,-0.5581,-0.5583,-0.5558,-0.5536,-0.5532,-0.5487,-0.5478,-0.5471,-0.545,-0.5441,-0.5436,-0.541,-0.5411,-0.545,-0.5457,-0.5463,-0.5468,-0.5398,0,0,0,0,0,-0.5742,-0.5729,-0.5683,-0.5684,-0.5672,-0.563,-0.562,-0.5593,-0.5565,-0.5554,-0.5523,-0.5496,-0.5477,-0.5466,-0.5446,-0.5446,-0.5435,-0.5449,-0.5455,-0.546,-0.5461,-0.5459,-0.5465,-0.5405,-0.5405,-0.5405,0,0,-0.5766,-0.5736,-0.5731,-0.5695,-0.5672,-0.5659,-0.5622,-0.561,-0.56,-0.5552,-0.5539,-0.5516,-0.5482,-0.5477,-0.5473,-0.5459,-0.5475,-0.5463,-0.5467,-0.5466,-0.5462,-0.5468,-0.5473,-0.5407,-0.5406,-0.5406,0,0,-0.5805,-0.5781,-0.5779,-0.5757,-0.5723,-0.5695,-0.5694,-0.5652,-0.5635,-0.5622,-0.5585,-0.5572,-0.5542,-0.5519,-0.5504,-0.5534,-0.5507,-0.5529,-0.5559,-0.5557,-0.5562,-0.5566,-0.5576,-0.558,-0.553,-0.553,-0.5531,0,-0.584,-0.582,-0.5781,-0.5772,-0.5757,-0.5713,-0.571,-0.569,-0.5652,-0.5642,-0.5627,-0.5587,-0.5561,-0.555,-0.5557,-0.5546,-0.5544,-0.5534,-0.5564,-0.5568,-0.5571,-0.558,-0.5584,-0.5533,-0.5533,-0.5533,-0.5532,0,-0.5865,-0.5852,-0.5854,-0.5818,-0.5803,-0.5798,-0.5757,-0.5747,-0.5722,-0.5695,-0.5682,-0.565,-0.5623,-0.5618,-0.5594,-0.5603,-0.5595,-0.5573,-0.5546,-0.558,-0.5588,-0.5592,-0.5538,-0.5536,-0.5536,-0.5535,0,0,-0.5938,-0.588,-0.5882,-0.5865,-0.5823,-0.5812,-0.5804,-0.5778,-0.577,-0.5744,-0.5736,-0.5711,-0.569,-0.5672,-0.5645,-0.5643,-0.5669,-0.5621,-0.5619,-0.5631,-0.5677,-0.5694,-0.5699,-0.5651,-0.5651,-0.5651,-0.5679,0,-0.597,-0.5953,-0.5917,-0.5912,-0.5899,-0.5857,-0.5849,-0.5823,-0.5798,-0.5783,-0.5754,-0.5737,-0.5711,-0.57,-0.5697,-0.5667,-0.5677,-0.5664,-0.5642,-0.5642,-0.5652,-0.5703,-0.5721,-0.5749,-0.5682,-0.5683,-0.5683,0,-0.6005,-0.5982,-0.5976,-0.5935,-0.5928,-0.5923,-0.5896,-0.5882,-0.5851,-0.5832,-0.5813,-0.5783,-0.5771,-0.5747,-0.573,-0.5722,-0.571,-0.5694,-0.5694,-0.5691,-0.5665,-0.5701,-0.5757,-0.5761,-0.5688,-0.5687,-0.5687,0,-0.6058,-0.6026,-0.6018,-0.6005,-0.5957,-0.5954,-0.5934,-0.5902,-0.5889,-0.5865,-0.5856,-0.5831,-0.5817,-0.5798,-0.5762,-0.5747,-0.5749,-0.5721,-0.5733,-0.5734,-0.5735,-0.5736,-0.579,-0.5728,-0.5728,-0.5728,-0.5728,0,-0.6098,-0.6095,-0.6042,-0.6037,-0.6032,-0.5991,-0.5988,-0.5964,-0.5936,-0.5925,-0.5886,-0.5877,-0.5829,-0.5814,-0.5785,-0.5775,-0.5769,-0.5754,-0.5746,-0.5757,-0.5759,-0.5749,-0.5746,-0.5729,-0.5729,-0.5729,-0.5728,0,-0.6157,-0.6121,-0.6109,-0.6065,-0.6054,-0.6053,-0.6015,-0.6008,-0.5981,-0.5967,-0.5962,-0.5918,-0.5898,-0.586,-0.5829,-0.581,-0.5806,-0.5793,-0.5817,-0.5812,-0.5826,-0.5825,-0.5876,-0.588,-0.5816,-0.5816,-0.5817,0,-0.6185,-0.6182,-0.6138,-0.6128,-0.611,-0.6094,-0.608,-0.6039,-0.6026,-0.5991,-0.5988,-0.5965,-0.5945,-0.5915,-0.588,-0.5856,-0.5842,-0.5861,-0.5838,-0.5849,-0.5842,-0.5842,-0.5842,-0.5867,-0.5867,-0.5868,-0.5869,0,-0.6238,-0.622,-0.6202,-0.6177,-0.6162,-0.6141,-0.6117,-0.6111,-0.6064,-0.6052,-0.6031,-0.6015,-0.5984,-0.5961,-0.5932,-0.591,-0.5882,-0.5876,-0.5878,-0.5889,-0.5903,-0.5896,-0.5831,-0.5875,-0.5875,-0.5874,-0.5874,-0.5874,-0.6282,-0.6277,-0.6246,-0.6226,-0.6204,-0.6183,-0.6175,-0.6146,-0.6128,-0.61,-0.6077,-0.6058,-0.6026,-0.5984,-0.5965,-0.5949,-0.5935,-0.5937,-0.5938,-0.5939,-0.5943,-0.5906,-0.5943,-0.5943,-0.5943,-0.5943,-0.5942,0,-0.6333,-0.631,-0.6293,-0.6261,-0.6246,-0.6221,-0.6194,-0.6182,-0.6167,-0.614,-0.612,-0.6096,-0.6074,-0.6038,-0.6013,-0.6007,-0.5993,-0.6002,-0.6002,-0.5997,-0.5957,-0.5958,-0.6013,-0.6013,-0.6013,-0.6013,-0.6013,-0.6013,-0.6357,-0.6348,-0.6327,-0.6306,-0.6283,-0.6265,-0.6251,-0.6232,-0.621,-0.6185,-0.6167,-0.6143,-0.6112,-0.6084,-0.6063,-0.6053,-0.6045,-0.6058,-0.6044,-0.6007,-0.6,-0.5994,-0.5995,-0.6057,-0.6057,-0.6085,-0.6085,-0.6085]},{"header":{"parameterUnit":"m.s-1","parameterCategory":1,"la1":30.2991,"la2":30.254,"lo1":-89.0895,"lo2":-89.0444,"dy":0.0017,"dx":0.0017,"nx":28,"ny":28,"refTime":"2025-12-24T03:00:00:Z","depth":0,"parameterNumber":3,"parameterNumberName":"V-component_of_WINDS"},"data":[0,0,0,0,0,0,0,0,0,0,0,0,0,0,0,0,0,0,0,0,0,0,0,0,0,0,0,0,0,0,0,0,0,0,0,0,0,0,0,0,0,0,0,0,0,0,0,0,0,0,0,0,0,0,0,0,0,0,-0.1777,-0.1778,0,-0.1861,-0.1862,-0.1863,-0.1868,-0.1867,-0.1866,-0.1865,-0.1954,-0.1957,-0.1961,0,0,0,0,0,0,0,0,0,0,0,0,0,-0.1622,-0.1625,-0.1777,-0.1778,-0.1779,-0.1861,-0.1862,-0.1863,-0.1868,-0.1866,-0.1865,-0.1864,-0.1953,-0.1957,-0.1961,0,0,0,0,0,0,0,0,0,0,0,0,0,-0.1696,-0.1626,-0.1776,-0.1791,-0.1793,-0.1861,-0.1862,-0.1863,-0.1868,-0.1866,-0.1865,-0.1864,-0.1952,-0.1957,-0.1961,-0.2021,0,0,-0.1977,-0.1979,0,0,0,0,0,0,0,0,-0.1692,-0.1702,-0.1788,-0.179,-0.1792,-0.1852,-0.184,-0.1917,-0.1868,-0.184,-0.1865,-0.1863,-0.1922,-0.1929,-0.1948,-0.2026,-0.2029,-0.1977,-0.198,-0.1982,-0.1984,0,0,0,0,0,0,0,-0.1687,-0.1698,-0.181,-0.1789,-0.1792,-0.1794,-0.1803,-0.1855,-0.1888,-0.1842,-0.1842,-0.1852,-0.1923,-0.1943,-0.195,-0.2031,-0.1977,-0.1981,-0.1984,-0.1986,-0.2162,-0.2164,0,0,0,0,0,0,-0.1678,-0.1694,-0.1807,-0.1813,-0.1737,-0.1798,-0.1808,-0.1835,-0.1887,-0.1894,-0.1853,-0.1852,-0.1936,-0.1944,-0.1953,-0.2028,-0.1982,-0.1987,-0.199,-0.216,-0.2162,-0.2164,0,0,0,0,0,0,-0.1675,-0.1688,-0.1804,-0.1753,-0.1768,-0.1802,-0.1832,-0.1837,-0.1858,-0.1896,-0.1902,-0.1868,-0.1935,-0.1946,-0.2004,-0.2031,-0.1989,-0.1993,-0.2158,-0.2161,-0.2163,-0.2176,0,0,0,0,0,0,-0.1671,-0.1687,-0.171,-0.1754,-0.1771,-0.1853,-0.1834,-0.184,-0.1866,-0.1865,-0.1912,-0.1918,-0.1935,-0.1997,-0.2009,-0.2037,-0.1997,-0.2156,-0.2159,-0.2163,-0.2173,-0.2179,-0.2183,0,0,0,0,0,-0.1665,-0.1711,-0.1711,-0.1725,-0.18,-0.1854,-0.1864,-0.1881,-0.1868,-0.1891,-0.1916,-0.1916,-0.2025,-0.2003,-0.2017,-0.2046,-0.2155,-0.2159,-0.2162,-0.2171,-0.2178,-0.2183,0,0,0,0,0,0,-0.167,-0.1717,-0.1718,-0.1779,-0.1812,-0.1855,-0.1885,-0.1888,-0.1927,-0.1925,-0.1945,-0.1956,-0.2013,-0.2035,-0.2009,-0.2107,-0.2089,-0.2095,-0.2091,-0.2097,-0.2102,-0.2096,-0.2001,0,0,0,0,0,-0.1678,-0.1718,-0.1757,-0.1807,-0.1824,-0.1851,-0.1876,-0.1886,-0.1922,-0.1937,-0.1966,-0.2001,-0.2044,-0.2071,-0.2113,-0.2176,-0.2187,-0.2203,-0.2208,-0.2212,-0.2218,-0.2253,-0.2261,-0.2177,-0.2177,-0.2177,0,0,-0.1696,-0.1726,-0.175,-0.1809,-0.1836,-0.1877,-0.1863,-0.1908,-0.1939,-0.1944,-0.2,-0.2022,-0.2064,-0.2125,-0.2153,-0.2145,-0.2243,-0.2217,-0.2219,-0.2224,-0.2258,-0.2266,-0.2273,-0.2179,-0.2179,-0.2179,0,0,-0.1749,-0.1775,-0.182,-0.1848,-0.1889,-0.1907,-0.1917,-0.1959,-0.1974,-0.203,-0.2035,-0.2073,-0.2145,-0.2174,-0.2199,-0.2262,-0.2264,-0.2275,-0.2301,-0.2335,-0.2342,-0.2348,-0.2371,-0.2379,-0.228,-0.228,-0.2281,0,-0.1766,-0.1828,-0.1843,-0.1888,-0.1913,-0.1918,-0.1964,-0.199,-0.2043,-0.2061,-0.2051,-0.2142,-0.217,-0.2238,-0.2253,-0.2272,-0.2286,-0.227,-0.234,-0.2346,-0.2352,-0.2374,-0.2383,-0.2282,-0.2281,-0.2281,-0.2281,0,-0.1847,-0.1889,-0.1921,-0.197,-0.2,-0.2045,-0.2068,-0.2096,-0.2103,-0.2122,-0.218,-0.2214,-0.2262,-0.2278,-0.2286,-0.2348,-0.2341,-0.2335,-0.2317,-0.2361,-0.2382,-0.2391,-0.2283,-0.2283,-0.2282,-0.2282,0,0,-0.1907,-0.1964,-0.1975,-0.1998,-0.2043,-0.2077,-0.2122,-0.2167,-0.2191,-0.2227,-0.2266,-0.2327,-0.2321,-0.2349,-0.236,-0.239,-0.2439,-0.238,-0.2382,-0.2391,-0.2509,-0.2515,-0.2524,-0.244,-0.2442,-0.2443,-0.2506,0,-0.1966,-0.2046,-0.2061,-0.213,-0.217,-0.2175,-0.2214,-0.2247,-0.2265,-0.2303,-0.2324,-0.2367,-0.2356,-0.2372,-0.2402,-0.2427,-0.2463,-0.2422,-0.2478,-0.248,-0.2468,-0.2535,-0.2541,-0.2599,-0.2515,-0.2516,-0.2517,0,-0.2046,-0.2083,-0.2156,-0.2195,-0.2213,-0.2248,-0.2291,-0.2326,-0.2363,-0.2374,-0.2405,-0.2412,-0.246,-0.2439,-0.2506,-0.2477,-0.2501,-0.2516,-0.2519,-0.2526,-0.2502,-0.2545,-0.2618,-0.2627,-0.253,-0.2529,-0.2528,0,-0.2084,-0.2151,-0.2204,-0.2223,-0.227,-0.2295,-0.2316,-0.2351,-0.2377,-0.2415,-0.2433,-0.2476,-0.25,-0.2533,-0.2553,-0.2535,-0.2619,-0.2599,-0.2631,-0.263,-0.2649,-0.2648,-0.2728,-0.2662,-0.2662,-0.2662,-0.2662,0,-0.2149,-0.2194,-0.2221,-0.2254,-0.2305,-0.2321,-0.2371,-0.2392,-0.2423,-0.246,-0.2467,-0.2502,-0.2525,-0.2563,-0.2579,-0.2632,-0.2643,-0.2654,-0.2658,-0.2654,-0.2653,-0.2671,-0.2668,-0.2664,-0.2664,-0.2663,-0.2663,0,-0.22,-0.222,-0.2278,-0.2317,-0.2328,-0.2364,-0.2398,-0.243,-0.2448,-0.2495,-0.2507,-0.2537,-0.2582,-0.2604,-0.2662,-0.2672,-0.2733,-0.2733,-0.272,-0.2722,-0.2753,-0.275,-0.2848,-0.2862,-0.2786,-0.2787,-0.2787,0,-0.2241,-0.2275,-0.2318,-0.2342,-0.2364,-0.2404,-0.243,-0.2448,-0.2476,-0.252,-0.2547,-0.2592,-0.263,-0.2703,-0.273,-0.2773,-0.2776,-0.2807,-0.2783,-0.2778,-0.2778,-0.2776,-0.278,-0.2812,-0.2813,-0.2813,-0.2814,0,-0.2311,-0.2319,-0.2357,-0.2398,-0.2429,-0.2463,-0.2496,-0.2516,-0.2539,-0.257,-0.2616,-0.2645,-0.2702,-0.2748,-0.2793,-0.2816,-0.2819,-0.2821,-0.2831,-0.2828,-0.282,-0.2826,-0.2733,-0.2819,-0.2819,-0.2818,-0.2818,-0.2818,-0.2359,-0.239,-0.2425,-0.2466,-0.2493,-0.2523,-0.2555,-0.2577,-0.2615,-0.2663,-0.2671,-0.272,-0.2756,-0.2817,-0.2841,-0.288,-0.2873,-0.2887,-0.2891,-0.2895,-0.2897,-0.2812,-0.2888,-0.2888,-0.2888,-0.2888,-0.2888,0,-0.2431,-0.2453,-0.2491,-0.2536,-0.2569,-0.2568,-0.2604,-0.2632,-0.2675,-0.2707,-0.2744,-0.2797,-0.2841,-0.2871,-0.2915,-0.2941,-0.2944,-0.2952,-0.2951,-0.2957,-0.29,-0.2887,-0.2949,-0.2949,-0.2949,-0.2949,-0.2949,-0.2949,-0.2472,-0.2524,-0.2536,-0.2602,-0.2624,-0.2671,-0.2692,-0.2721,-0.2747,-0.2805,-0.2841,-0.286,-0.2892,-0.2939,-0.2979,-0.2987,-0.3004,-0.3013,-0.302,-0.2967,-0.2961,-0.2955,-0.2943,-0.3016,-0.3016,-0.3074,-0.3075,-0.3075]}]]